[[{"header":{"parameterUnit":"m.s-1","parameterCategory":1,"la1":30.2991,"la2":30.254,"lo1":-89.0895,"lo2":-89.0444,"dy":0.0017,"dx":0.0017,"nx":28,"ny":28,"refTime":"2025-04-17T03:00:00:Z","depth":0,"parameterNumber":2,"parameterNumberName":"U-component_of_WINDS"},"data":[0,0,0,0,0,0,0,0,0,0,0,0,0,0,0,0,0,0,0,0,0,0,0,0,0,0,0,0,0,0,0,0,0,0,0,0,0,0,0,0,0,0,0,0,0,0,0,0,0,0,0,0,0,0,0,0,0,0,1.2073,1.2074,0,1.2161,1.2162,1.2163,1.2208,1.2208,1.2208,1.2208,1.2296,1.2298,1.23,0,0,0,0,0,0,0,0,0,0,0,0,0,1.1943,1.1945,1.2073,1.2074,1.2075,1.216,1.2162,1.2163,1.2208,1.2208,1.2208,1.2208,1.2295,1.2298,1.23,0,0,0,0,0,0,0,0,0,0,0,0,0,1.2011,1.1945,1.2073,1.2108,1.2112,1.216,1.2162,1.2163,1.2208,1.2208,1.2208,1.2209,1.2294,1.2298,1.2301,1.232,0,0,1.2311,1.2313,0,0,0,0,0,0,0,0,1.2008,1.2016,1.2102,1.2106,1.2111,1.2174,1.2148,1.2216,1.2208,1.2172,1.2208,1.2209,1.2255,1.2262,1.2278,1.2324,1.2327,1.2312,1.2314,1.2315,1.2316,0,0,0,0,0,0,0,1.2003,1.2013,1.2108,1.2103,1.2108,1.2119,1.2129,1.2161,1.2212,1.2175,1.2178,1.2188,1.2257,1.2274,1.228,1.2329,1.2311,1.2314,1.2317,1.2318,1.2394,1.2394,0,0,0,0,0,0,1.1993,1.2008,1.2105,1.211,1.2058,1.2121,1.2132,1.2153,1.2211,1.222,1.2188,1.219,1.2268,1.2276,1.2283,1.2309,1.2315,1.2318,1.232,1.2394,1.2394,1.2394,0,0,0,0,0,0,1.199,1.2001,1.2101,1.206,1.2074,1.2123,1.2147,1.2155,1.2172,1.2221,1.223,1.2196,1.2269,1.2279,1.231,1.2312,1.232,1.2323,1.2394,1.2394,1.2394,1.236,0,0,0,0,0,0,1.1986,1.1999,1.2008,1.206,1.2076,1.2128,1.2147,1.2157,1.2178,1.2181,1.2232,1.224,1.227,1.2305,1.2314,1.2317,1.2325,1.2394,1.2394,1.2394,1.2361,1.2359,1.2357,0,0,0,0,0,1.1981,1.1994,1.2008,1.2019,1.2088,1.2128,1.2137,1.2171,1.2178,1.2186,1.2218,1.2238,1.2311,1.2308,1.2318,1.2323,1.2394,1.2394,1.2394,1.2362,1.2359,1.2357,0,0,0,0,0,0,1.194,1.2002,1.2018,1.2049,1.2083,1.2135,1.2147,1.2167,1.2199,1.2201,1.2242,1.2253,1.228,1.2305,1.23,1.2343,1.2354,1.2356,1.2327,1.2324,1.2322,1.2316,1.2328,0,0,0,0,0,1.1935,1.1963,1.2015,1.2038,1.2054,1.2097,1.2116,1.214,1.2176,1.219,1.2224,1.2258,1.2289,1.2308,1.2339,1.2365,1.2376,1.2373,1.237,1.2368,1.237,1.2384,1.2383,1.2393,1.2393,1.2393,0,0,1.1924,1.1962,1.1977,1.2031,1.206,1.2087,1.2109,1.2137,1.2158,1.2195,1.2227,1.2253,1.2293,1.2322,1.2336,1.2343,1.2369,1.2368,1.2366,1.2369,1.2384,1.2383,1.2382,1.2393,1.2393,1.2393,0,0,1.1919,1.195,1.1972,1.2001,1.2045,1.2073,1.2078,1.2128,1.2147,1.218,1.2208,1.2232,1.2284,1.2311,1.2332,1.2336,1.2355,1.2344,1.2333,1.2347,1.2346,1.2346,1.2346,1.2346,1.2345,1.2345,1.2345,0,1.19,1.1943,1.1981,1.2007,1.203,1.2065,1.2086,1.2112,1.2163,1.2177,1.2184,1.225,1.2279,1.2314,1.2315,1.2331,1.2337,1.2339,1.2343,1.2343,1.2343,1.2345,1.2345,1.2344,1.2344,1.2344,1.2344,0,1.1917,1.1947,1.1959,1.2008,1.2032,1.2056,1.2096,1.2115,1.2136,1.2164,1.2196,1.2233,1.2272,1.2282,1.2303,1.232,1.2322,1.2336,1.2348,1.234,1.2342,1.2343,1.2341,1.2342,1.2342,1.2343,0,0,1.1889,1.1959,1.1962,1.1985,1.2035,1.2058,1.2083,1.2122,1.2137,1.2171,1.2192,1.2235,1.2247,1.227,1.2295,1.2307,1.2307,1.2319,1.232,1.2315,1.2327,1.2316,1.2316,1.232,1.232,1.2321,1.2323,0,1.1891,1.1939,1.1972,1.2006,1.2034,1.2067,1.2088,1.2121,1.2147,1.2173,1.2202,1.2231,1.2246,1.226,1.2273,1.2304,1.231,1.2304,1.234,1.234,1.2328,1.2317,1.2307,1.2307,1.2324,1.2325,1.2325,0,1.1899,1.1933,1.1969,1.2016,1.2029,1.2048,1.2085,1.211,1.2147,1.2165,1.2191,1.2216,1.2242,1.2252,1.2288,1.2284,1.23,1.2317,1.2318,1.2323,1.2332,1.2321,1.2309,1.2309,1.2326,1.2326,1.2326,0,1.1875,1.1928,1.1957,1.1976,1.2031,1.2044,1.2067,1.2105,1.2125,1.2157,1.2171,1.2205,1.2224,1.225,1.2283,1.2287,1.2316,1.2328,1.2331,1.233,1.2336,1.2335,1.2325,1.2347,1.2347,1.2347,1.2347,0,1.1873,1.1894,1.1947,1.1965,1.1989,1.2027,1.205,1.2076,1.2109,1.2131,1.2162,1.2182,1.2225,1.225,1.2276,1.2302,1.231,1.2325,1.2332,1.2322,1.232,1.2333,1.2334,1.2347,1.2347,1.2347,1.2347,0,1.1849,1.1886,1.192,1.197,1.1982,1.1998,1.204,1.2058,1.2086,1.2114,1.2122,1.2165,1.2196,1.2232,1.2275,1.2292,1.2316,1.2326,1.2304,1.2308,1.2308,1.2307,1.2307,1.2308,1.2328,1.2328,1.2328,0,1.1846,1.1863,1.1915,1.1932,1.1955,1.1983,1.2004,1.2042,1.2062,1.2106,1.2118,1.2152,1.218,1.2228,1.2263,1.2295,1.2306,1.2304,1.2311,1.2301,1.2306,1.2304,1.2305,1.2301,1.2301,1.23,1.23,0,1.1835,1.1852,1.1882,1.1918,1.1942,1.1972,1.2003,1.2015,1.2059,1.208,1.2113,1.2135,1.2179,1.2211,1.2248,1.2272,1.2293,1.2297,1.23,1.229,1.2276,1.2283,1.2297,1.2297,1.2298,1.2298,1.2298,1.2298,1.1822,1.1838,1.1877,1.1909,1.1936,1.1964,1.1983,1.2013,1.2041,1.208,1.21,1.2132,1.2168,1.2219,1.2242,1.2267,1.2274,1.2277,1.2278,1.2278,1.2275,1.2273,1.2273,1.2274,1.2274,1.2274,1.2274,0,1.1812,1.1839,1.1868,1.191,1.1935,1.1953,1.1988,1.2007,1.2035,1.2067,1.2095,1.2131,1.2163,1.22,1.2233,1.2246,1.2256,1.2254,1.2253,1.2258,1.2267,1.2262,1.2244,1.2244,1.2244,1.2244,1.2244,1.2244,1.181,1.1839,1.186,1.1902,1.1928,1.196,1.1979,1.2004,1.203,1.207,1.2096,1.212,1.2154,1.219,1.2219,1.2229,1.224,1.2234,1.2246,1.2255,1.2257,1.2259,1.2254,1.2236,1.2236,1.2235,1.2235,1.2235]},{"header":{"parameterUnit":"m.s-1","parameterCategory":1,"la1":30.2991,"la2":30.254,"lo1":-89.0895,"lo2":-89.0444,"dy":0.0017,"dx":0.0017,"nx":28,"ny":28,"refTime":"2025-04-17T03:00:00:Z","depth":0,"parameterNumber":3,"parameterNumberName":"V-component_of_WINDS"},"data":[0,0,0,0,0,0,0,0,0,0,0,0,0,0,0,0,0,0,0,0,0,0,0,0,0,0,0,0,0,0,0,0,0,0,0,0,0,0,0,0,0,0,0,0,0,0,0,0,0,0,0,0,0,0,0,0,0,0,3.5517,3.5517,0,3.5509,3.5509,3.5509,3.5486,3.5485,3.5485,3.5484,3.5476,3.5477,3.5477,0,0,0,0,0,0,0,0,0,0,0,0,0,3.5513,3.5513,3.5517,3.5517,3.5517,3.5509,3.5509,3.5509,3.5486,3.5485,3.5485,3.5484,3.5476,3.5477,3.5477,0,0,0,0,0,0,0,0,0,0,0,0,0,3.5511,3.5514,3.5517,3.5505,3.5503,3.5509,3.5509,3.5509,3.5486,3.5485,3.5485,3.5484,3.5476,3.5477,3.5477,3.5494,0,0,3.5478,3.5478,0,0,0,0,0,0,0,0,3.5511,3.5511,3.5506,3.5505,3.5504,3.5498,3.5505,3.5504,3.5486,3.5493,3.5484,3.5483,3.5484,3.5484,3.5484,3.5494,3.5494,3.5478,3.5478,3.5479,3.5479,0,0,0,0,0,0,0,3.5511,3.5511,3.5514,3.5506,3.5505,3.5499,3.5498,3.5504,3.5493,3.5492,3.549,3.549,3.5483,3.5484,3.5484,3.5494,3.5478,3.5479,3.5479,3.5479,3.5517,3.5518,0,0,0,0,0,0,3.5513,3.5512,3.5514,3.5514,3.5506,3.55,3.5499,3.55,3.5493,3.5491,3.549,3.5489,3.5483,3.5483,3.5483,3.5502,3.5479,3.5479,3.5479,3.5516,3.5517,3.5518,0,0,0,0,0,0,3.5513,3.5514,3.5514,3.5512,3.5512,3.5501,3.5503,3.5501,3.5501,3.5491,3.5489,3.5493,3.5483,3.5483,3.5492,3.5502,3.5479,3.5479,3.5516,3.5517,3.5518,3.5541,0,0,0,0,0,0,3.5513,3.5514,3.552,3.5513,3.5512,3.5523,3.5504,3.5501,3.5502,3.5499,3.5493,3.5491,3.5482,3.5491,3.5492,3.5502,3.548,3.5515,3.5516,3.5517,3.554,3.5543,3.5546,0,0,0,0,0,3.5513,3.5527,3.5521,3.5521,3.552,3.5523,3.5523,3.5512,3.5503,3.5509,3.5503,3.5491,3.5501,3.5492,3.5493,3.5503,3.5514,3.5516,3.5517,3.5538,3.5542,3.5546,0,0,0,0,0,0,3.5536,3.5526,3.5518,3.553,3.5528,3.552,3.5527,3.5518,3.5518,3.5516,3.5503,3.5501,3.5512,3.5509,3.5499,3.552,3.5506,3.5508,3.5521,3.5525,3.5528,3.5528,3.548,0,0,0,0,0,3.5543,3.5546,3.5537,3.5549,3.5548,3.5538,3.5539,3.5531,3.5528,3.5527,3.5522,3.5519,3.5522,3.5523,3.5525,3.554,3.5538,3.5547,3.555,3.5553,3.5555,3.5561,3.5565,3.5524,3.5524,3.5524,0,0,3.5556,3.5551,3.5554,3.5553,3.555,3.5555,3.5537,3.5542,3.5545,3.5528,3.5536,3.5532,3.5528,3.554,3.5545,3.5538,3.5566,3.5555,3.5558,3.5558,3.5564,3.5568,3.5571,3.5525,3.5525,3.5525,0,0,3.5582,3.5579,3.5587,3.5585,3.5581,3.5575,3.5577,3.557,3.5567,3.5575,3.5561,3.5565,3.557,3.5568,3.5567,3.5594,3.5583,3.5595,3.5612,3.5618,3.5622,3.5624,3.5633,3.5636,3.5597,3.5597,3.5597,0,3.5599,3.5604,3.5593,3.5599,3.5599,3.5584,3.5593,3.5591,3.5588,3.5589,3.5581,3.5586,3.5583,3.5594,3.56,3.5601,3.5602,3.5595,3.5622,3.5625,3.5627,3.5635,3.5638,3.5598,3.5598,3.5598,3.5598,0,3.5625,3.5629,3.5637,3.5634,3.5635,3.5642,3.5633,3.5635,3.5628,3.5622,3.563,3.5626,3.5626,3.5629,3.5621,3.5638,3.5634,3.5624,3.561,3.5633,3.564,3.5643,3.56,3.5599,3.5599,3.5599,0,0,3.5663,3.5655,3.5658,3.5656,3.5651,3.5654,3.5662,3.5662,3.5664,3.5663,3.5668,3.5673,3.5664,3.5664,3.5656,3.5663,3.5683,3.5652,3.5652,3.5657,3.57,3.5706,3.571,3.5676,3.5677,3.5677,3.57,0,3.5687,3.5697,3.5688,3.5701,3.5705,3.5691,3.5697,3.5695,3.569,3.5693,3.5688,3.5691,3.5679,3.5679,3.5685,3.5679,3.5691,3.5677,3.568,3.5681,3.568,3.5714,3.572,3.5742,3.5703,3.5704,3.5704,0,3.5715,3.5715,3.5728,3.5722,3.5723,3.5729,3.5729,3.5732,3.5729,3.5725,3.5725,3.5716,3.5723,3.571,3.5718,3.5709,3.5711,3.5708,3.5709,3.5707,3.5693,3.5712,3.5749,3.5752,3.5708,3.5708,3.5708,0,3.574,3.5744,3.5752,3.5751,3.5745,3.5749,3.5747,3.5744,3.5745,3.5745,3.5745,3.5746,3.5747,3.5748,3.5739,3.5731,3.5749,3.5735,3.5745,3.5746,3.5748,3.5748,3.5784,3.5752,3.5752,3.5752,3.5751,0,3.5766,3.5775,3.5763,3.5768,3.5777,3.5767,3.5776,3.5772,3.577,3.5774,3.5763,3.5767,3.5756,3.5759,3.5753,3.576,3.5761,3.5758,3.5756,3.5758,3.5758,3.5757,3.5755,3.5752,3.5752,3.5752,3.5752,0,3.5795,3.5788,3.5796,3.579,3.5788,3.5795,3.579,3.5794,3.5789,3.5794,3.5795,3.5787,3.579,3.5782,3.5784,3.578,3.5791,3.5787,3.5792,3.579,3.58,3.5799,3.5836,3.584,3.5806,3.5806,3.5807,0,3.5812,3.5817,3.5812,3.5814,3.5812,3.5816,3.5817,3.5807,3.5809,3.5807,3.5811,3.5814,3.5814,3.582,3.5814,3.5816,3.5811,3.5824,3.5811,3.5813,3.581,3.5809,3.581,3.5826,3.5827,3.5827,3.5827,0,3.5841,3.5837,3.5839,3.584,3.5841,3.5841,3.5841,3.5843,3.5833,3.5835,3.5838,3.5839,3.5841,3.5843,3.5844,3.5842,3.5833,3.5832,3.5834,3.5836,3.5837,3.5835,3.5798,3.5831,3.583,3.583,3.583,3.583,3.5863,3.5868,3.5865,3.5867,3.5866,3.5866,3.5869,3.5865,3.5867,3.5868,3.5863,3.5867,3.5865,3.5864,3.5863,3.5866,3.586,3.5864,3.5864,3.5865,3.5866,3.5838,3.5866,3.5866,3.5866,3.5866,3.5866,0,3.5891,3.5889,3.5891,3.5891,3.5893,3.5885,3.5884,3.5886,3.589,3.5888,3.589,3.5893,3.5896,3.5891,3.5892,3.5896,3.5892,3.5896,3.5895,3.5894,3.5872,3.5869,3.5899,3.5899,3.5899,3.5899,3.5899,3.5899,3.5906,3.5913,3.5909,3.5916,3.5913,3.5917,3.5917,3.5917,3.5916,3.592,3.5922,3.5919,3.5916,3.5917,3.5919,3.5918,3.5918,3.5924,3.5921,3.5899,3.5896,3.5893,3.589,3.5924,3.5924,3.5943,3.5943,3.5943]}]]